Location: Kalberh�ni
(46.4610°N, 7.2453°E)
Time: 06:23:47
(UTC+00:00)

Cosmos 2333 Rocket - Pass Details

Date: 26 October 2021
Orbit: 837 x 865 km, 70.8° (Epoch: 05 December)

Event Time Altitude Azimuth Distance (km) Brightness Sun altitude
Rises 17:55:48 0° 182° (S) 3,383 5.4 -16.2°
Reaches altitude 10° 17:58:21 10° 175° (S) 2,456 4.6 -16.6°
Maximum altitude 18:03:34 40° 107° (ESE) 1,226 2.6 -17.5°
Enters shadow 18:06:34 23° 53° (NE) 1,736 3.4 -18.0°
